Location: Le Moustier
(44.1000°N, 6.5167°E)
Time: 16:32:30
(UTC+00:00)

Cosmos 2333 Rocket - Visible Passes

Search period start: 14 March 2026 00:00
Search period end: 24 March 2026 00:00
Orbit: 840 x 862 km, 70.8° (Epoch: 14 March)

Date Brightness Start Highest point End Pass type
(mag) Time Alt. Az. Time Alt. Az. Time Alt. Az.
14 Mar 4.6 01:47:02 15° N 01:47:02 15° N 01:48:18 10° N visible
15 Mar 4.7 01:34:55 15° N 01:34:55 15° N 01:36:04 10° N visible
16 Mar 4.7 01:22:46 14° N 01:22:46 14° N 01:23:48 10° N visible
17 Mar 4.8 01:10:36 14° N 01:10:36 14° N 01:11:34 10° N visible
18 Mar 4.8 00:58:25 14° N 00:58:25 14° N 00:59:19 10° N visible
19 Mar 4.9 00:46:12 14° N 00:46:12 14° N 00:47:04 10° N visible
20 Mar 4.9 00:33:59 14° N 00:33:59 14° N 00:34:49 10° N visible
21 Mar 4.9 00:21:43 14° N 00:21:43 14° N 00:22:34 10° N visible
22 Mar 4.9 00:09:25 14° N 00:09:25 14° N 00:10:19 10° N visible
22 Mar 4.9 23:57:06 14° N 23:57:06 14° N 23:58:04 10° N visible
23 Mar 4.8 23:44:44 15° N 23:44:44 15° N 23:45:49 10° N visible
